SCP
1 1 1 1 1 0 1 1 1 1 1 0 0 0 0 0 0 0 0 0 0 0 0 1 1 1 1 1 1 1 1 1 1 1 1 1 1 1 1 1 0 0 0
1 1 1 1 1 0 0 0 1 1 1 0 0 0 0 0 0 0 0 0 0 0 0 0 1 1 1 1 1 1 1 1 1 1 1 1 1 1 1 1 1 0 0
1 1 1 1 0 0 0 0 1 1 1 0 0 0 0 0 0 0 0 0 0 0 0 0 0 1 1 1 1 1 1 2 2 2 2 2 1 1 1 1 1 1 1
1 1 1 1 0 0 0 0 0 1 1 1 1 0 0 0 0 0 0 0 0 0 0 0 0 0 1 1 1 1 1 2 2 2 2 2 2 2 1 1 1 1 1
1 1 1 0 0 0 0 0 0 1 1 1 1 0 0 0 0 0 0 0 0 0 0 0 0 0 0 1 1 1 1 1 1 2 2 2 2 2 2 1 1 1 1
1 1 0 0 0 0 0 0 0 0 0 1 1 1 0 0 0 0 0 0 0 0 0 0 0 0 0 0 1 1 1 1 1 1 2 2 2 2 2 2 2 1 1
0 0 0 0 0 0 0 0 0 0 0 0 1 1 0 0 0 0 0 0 0 0 0 0 0 0 0 0 0 1 1 1 1 1 1 1 2 2 2 2 2 2 1
0 0 0 0 0 0 0 0 0 0 0 0 0 0 0 0 0 0 0 0 0 0 0 0 0 0 0 0 0 0 0 1 1 1 1 1 1 1 1 2 2 1 1
1 0 0 0 0 0 0 0 0 0 0 0 0 0 0 0 0 0 0 0 0 0 0 0 0 0 0 0 0 0 0 1 1 1 1 1 1 1 1 1 1 1 1
1 0 0 0 0 0 0 0 0 0 0 0 0 0 0 0 0 0 0 0 0 0 0 0 0 0 0 0 0 0 0 1 1 1 1 1 1 1 1 1 1 1 1
1 0 0 0 0 0 0 0 0 0 0 0 0 0 0 0 0 0 0 0 0 0 0 0 0 0 0 0 0 0 0 0 1 1 1 1 1 1 1 1 1 1 1
0 0 0 0 0 0 0 0 0 0 0 0 0 0 0 0 0 0 0 0 0 0 0 0 0 0 0 0 0 0 0 0 0 1 1 1 1 1 1 1 1 1 1
0 0 0 0 0 0 0 0 0 0 0 0 0 0 0 0 0 0 0 0 0 0 0 0 0 0 0 0 0 0 0 0 0 0 0 0 1 1 1 1 1 1 1
0 0 0 0 0 0 0 0 0 0 0 0 0 0 0 0 0 0 0 0 0 0 0 0 0 0 0 0 0 0 0 0 0 0 0 0 0 0 0 0 0 0 0
0 0 0 0 0 0 0 0 0 0 0 0 0 0 0 0 0 0 0 0 0 0 0 0 0 0 0 0 0 0 0 0 0 0 0 0 0 0 0 0 0 0 0
0 0 0 0 0 0 0 0 0 0 0 0 0 0 0 0 0 0 0 0 0 0 0 0 0 0 0 0 0 0 0 0 0 0 0 0 0 0 0 0 0 0 0
0 0 0 0 0 0 0 0 0 0 0 0 0 0 0 0 0 0 0 0 0 0 0 0 0 0 0 0 0 0 0 0 0 0 0 0 0 0 0 0 0 0 0
0 1 1 0 0 0 0 0 0 0 0 0 0 0 0 0 0 0 0 0 0 0 0 0 0 0 0 0 0 0 0 0 0 0 0 0 0 0 0 0 0 0 0
0 0 1 0 0 0 0 0 0 0 0 0 0 0 0 0 0 0 0 0 0 0 0 0 0 0 0 0 0 0 0 0 0 0 0 0 0 0 0 0 0 0 0
0 0 1 0 0 0 0 0 0 0 0 0 0 0 0 0 0 0 0 0 0 0 0 0 0 0 0 0 0 0 0 0 0 0 0 0 0 0 0 0 0 0 0
0 0 0 0 0 0 0 0 0 0 0 0 0 0 0 0 0 0 0 0 0 0 0 0 0 0 0 0 0 0 0 0 0 0 0 0 0 0 0 0 0 0 0
0 0 0 0 0 0 0 0 0 0 0 0 0 0 0 0 0 0 0 0 0 0 0 0 0 0 0 0 0 0 0 0 0 0 0 0 0 0 0 0 0 0 0
0 0 0 0 0 0 0 0 0 0 0 0 0 0 0 0 0 0 0 0 0 0 0 0 0 0 0 0 0 0 0 0 0 0 0 0 0 0 0 0 0 0 0
0 0 0 0 0 0 0 0 0 0 0 0 0 0 0 0 0 0 0 0 0 0 0 0 0 0 0 0 0 0 0 0 0 0 0 0 0 0 0 0 0 0 0
0 0 0 0 0 0 0 0 0 0 0 0 0 0 0 0 0 0 0 0 0 0 0 0 0 0 0 0 0 0 0 0 0 0 0 0 0 0 0 0 0 0 0
0 0 0 0 0 0 0 0 0 0 0 0 0 0 0 0 0 0 0 0 0 0 0 0 0 0 0 0 0 0 0 0 0 0 0 0 0 0 0 0 0 0 0
Wind_Speed
2 1 1 1 1 1 1 1 1 2 1 1 1 1 1 1 1 1 2 4 5 4 4 4 4 4 4 4 4 4 4 5 5 5 5 6 6 7 7 8 8 9 10
2 1 1 1 1 1 1 1 1 1 1 0 1 1 0 0 1 1 1 3 5 5 5 5 5 5 5 5 5 4 5 5 6 6 6 7 7 7 8 8 8 9 10
2 2 1 0 0 1 1 1 1 1 1 1 1 1 1 0 1 1 1 1 2 4 5 5 6 6 6 6 6 5 5 6 6 7 7 7 8 8 9 9 9 10 10
2 2 1 1 0 1 1 1 1 1 1 1 1 1 1 1 1 1 1 1 1 2 3 5 6 6 7 7 7 7 7 7 7 7 7 7 8 9 10 10 10 11 11
2 2 1 1 1 1 1 1 1 1 0 1 1 1 1 1 1 1 1 1 1 1 1 3 5 6 7 8 8 8 8 8 7 7 8 8 8 9 9 10 11 12 12
2 2 1 1 1 1 1 1 1 1 0 1 1 1 1 1 1 1 1 1 1 1 1 2 2 4 6 8 8 9 9 8 8 8 9 9 9 10 10 11 11 12 12
2 2 1 1 1 1 1 1 1 1 1 1 1 1 2 1 1 1 1 1 1 1 1 1 1 2 3 6 7 8 9 9 9 9 9 10 10 11 11 11 12 12 13
2 2 2 2 1 1 1 1 1 1 1 1 1 0 2 2 2 1 1 1 1 1 1 2 2 2 2 2 4 7 8 9 10 10 11 11 11 12 12 12 12 13 13
1 2 2 2 2 1 1 1 2 2 1 0 0 1 1 2 2 2 1 1 1 1 1 2 2 2 2 2 2 5 7 8 10 11 12 12 12 13 13 13 13 13 13
1 1 2 2 2 1 1 1 1 1 2 1 0 0 1 1 1 2 2 1 2 2 2 2 2 2 2 2 3 6 7 8 9 11 12 12 12 13 13 13 13 13 13
1 1 1 1 1 1 2 1 1 1 2 2 2 1 1 1 1 2 3 3 2 2 2 2 2 2 2 2 2 5 7 8 9 10 11 12 12 13 13 14 13 13 13
0 0 1 1 1 1 2 2 2 2 2 2 2 2 2 2 2 2 3 3 3 3 3 2 2 2 2 2 3 7 8 8 9 10 11 11 11 12 12 13 13 13 13
1 1 1 1 2 2 2 2 2 2 2 2 3 2 2 3 2 2 2 2 3 3 2 2 2 1 2 2 3 7 7 8 9 9 9 9 9 10 11 12 13 13 13
2 2 2 2 2 2 2 2 2 2 2 3 3 3 2 3 2 2 2 2 3 3 2 3 2 1 2 2 4 6 4 7 8 8 8 9 9 9 10 11 12 12 13
1 1 2 2 2 2 2 2 2 2 2 3 3 3 3 3 3 3 3 3 3 3 4 2 2 2 2 2 4 3 2 6 7 8 8 8 8 9 10 11 11 12 12
1 1 2 2 2 2 2 2 2 2 2 3 2 3 3 2 2 3 3 3 3 3 4 2 2 2 3 3 5 3 3 7 7 8 8 8 8 9 10 11 11 11 12
1 2 2 2 2 2 2 3 3 3 3 3 3 3 4 3 3 2 2 2 3 3 4 3 2 2 2 3 3 3 3 2 3 7 8 8 9 9 10 10 11 11 12
2 2 2 2 3 3 3 3 3 3 4 4 4 3 4 3 3 3 2 3 3 3 3 4 3 2 3 2 2 3 3 3 2 6 8 8 9 10 10 10 11 11 11
2 2 2 3 3 3 3 3 4 4 4 4 4 4 4 4 4 3 3 3 3 3 2 3 3 2 2 2 2 2 3 3 3 5 6 7 8 10 10 11 11 11 11
2 3 3 3 3 3 4 4 4 4 4 4 4 4 5 5 5 4 4 4 3 3 2 3 3 3 2 2 1 2 3 2 3 4 5 6 8 10 11 11 10 10 10
3 3 3 3 3 3 3 4 4 4 4 4 4 4 5 6 7 5 4 3 3 3 3 3 3 2 2 2 2 2 3 3 3 2 2 4 4 4 5 8 9 9 10
2 2 3 3 3 3 5 6 5 4 4 4 4 4 5 6 7 8 9 7 5 4 4 3 3 3 3 3 2 2 2 3 3 2 2 4 3 4 4 3 7 10 10
2 2 3 3 3 4 6 7 7 4 4 4 5 4 4 4 5 4 7 7 6 7 6 4 4 5 4 4 3 3 3 4 4 3 3 5 3 4 4 5 9 10 9
2 2 3 3 3 4 7 7 6 4 3 4 5 5 5 5 5 5 4 4 4 4 5 4 4 5 4 4 4 4 4 3 4 3 2 4 4 4 4 4 8 8 8
2 3 3 3 3 4 7 7 6 3 3 4 4 4 4 5 7 7 4 4 3 3 4 5 5 5 6 6 4 2 2 2 3 3 2 2 2 3 3 3 4 7 9
3 3 3 3 4 4 7 7 6 3 3 3 3 4 6 6 7 7 4 3 3 3 2 2 2 3 3 3 5 3 3 3 2 3 2 1 2 2 3 2 2 3 5
Wind_Direction
96 82 74 73 75 83 96 91 87 91 82 57 52 67 71 35 346 334 323 336 334 325 319 318 316 313 315 308 303 302 298 297 300 304 308 311 312 312 311 312 312 311 310
117 103 80 73 65 76 95 110 114 101 100 82 31 6 332 312 300 313 316 332 343 336 326 323 323 319 316 312 306 306 307 300 297 299 301 304 306 308 308 308 308 310 311
129 130 119 99 93 91 91 92 82 72 59 34 355 331 320 285 288 301 308 315 330 341 336 327 323 325 322 315 311 305 306 307 297 291 292 297 299 299 300 302 301 303 304
142 138 145 161 127 103 108 107 93 70 28 355 322 318 319 296 271 274 291 305 321 337 339 339 333 327 324 319 313 308 305 304 303 296 291 292 294 296 296 297 298 298 299
150 143 149 150 118 97 98 109 70 112 42 324 296 300 301 279 264 279 260 277 283 309 322 336 339 332 325 320 316 311 305 304 303 304 299 293 294 297 298 299 298 297 296
151 141 138 138 130 118 105 112 104 52 92 295 305 313 295 274 252 260 257 270 279 316 332 330 330 327 327 321 318 314 309 306 308 307 307 303 297 296 295 296 296 296 296
154 146 139 141 145 146 167 152 124 60 10 354 29 332 317 291 252 263 248 241 290 312 326 320 313 312 313 320 320 314 312 308 309 309 310 307 305 300 295 294 295 296 296
163 156 150 155 156 147 142 140 124 111 31 40 107 34 329 328 318 287 268 230 277 310 315 317 306 305 306 306 312 317 315 312 311 310 311 308 307 305 300 296 296 297 297
153 156 156 151 154 158 180 189 155 144 175 284 120 150 176 258 300 305 291 295 315 313 307 308 310 313 309 307 299 313 317 315 313 312 311 311 310 311 307 304 302 301 301
130 146 149 148 160 170 177 205 170 166 172 199 225 210 197 180 228 306 310 306 305 292 288 299 305 312 311 302 300 314 318 316 314 314 313 311 311 314 313 310 309 309 307
128 141 156 157 176 179 179 183 177 182 188 192 194 195 211 217 207 225 280 303 311 288 285 279 280 290 295 293 292 307 318 316 315 315 315 316 317 317 318 316 317 316 311
176 161 175 176 194 188 190 197 197 193 198 200 204 203 200 194 205 216 249 279 289 291 293 280 264 269 279 289 298 314 314 313 314 313 313 315 316 318 321 320 320 318 316
247 243 216 202 212 208 205 195 188 205 204 205 214 220 222 224 213 216 239 266 280 288 288 283 265 268 286 292 297 311 309 311 313 314 317 318 320 321 322 322 321 320 320
222 226 224 214 220 217 211 195 200 216 213 217 227 226 231 236 222 217 219 236 281 287 273 267 285 265 288 293 300 316 309 311 315 318 320 321 323 323 326 324 321 321 321
218 215 224 229 231 225 219 206 211 222 220 226 233 232 234 239 224 223 224 218 226 267 275 257 267 281 299 293 303 311 310 309 315 317 319 320 322 322 325 322 321 320 319
226 212 227 235 236 231 222 213 219 221 223 238 236 236 239 242 232 224 221 224 221 230 259 258 256 280 292 301 307 318 304 311 315 314 314 315 317 318 320 318 318 317 317
229 226 232 238 236 236 231 220 224 223 229 243 244 237 242 242 238 230 224 225 226 223 251 275 264 282 282 291 307 308 300 298 302 311 312 315 316 316 315 316 317 316 315
238 238 234 236 239 242 240 232 235 234 227 236 243 242 245 244 244 233 226 232 234 230 235 265 281 283 277 278 289 300 307 306 298 308 311 314 314 313 314 315 313 314 314
246 244 231 232 238 240 242 240 235 235 234 235 237 241 245 238 248 244 234 235 236 242 233 247 275 279 279 280 294 303 299 293 298 308 307 310 313 313 314 313 312 313 314
245 243 239 238 238 240 239 242 236 236 239 239 238 238 237 233 237 238 237 232 227 231 233 241 262 276 279 281 280 298 309 310 305 306 304 308 309 311 312 312 312 312 314
249 247 246 246 248 244 241 239 231 233 233 238 240 239 238 241 245 246 243 231 219 223 231 243 255 272 272 274 272 277 295 308 298 285 305 306 304 302 306 308 313 314 315
261 255 252 248 251 255 265 264 253 233 232 232 239 242 242 245 248 259 260 253 237 227 228 233 254 254 261 260 261 269 285 302 297 292 304 299 295 290 293 291 304 312 316
259 256 259 254 252 260 272 272 265 253 234 231 230 235 249 251 253 244 254 261 259 252 241 233 238 244 249 244 241 255 261 271 275 276 291 289 287 286 288 296 304 309 315
255 255 260 258 260 269 278 278 276 260 241 235 232 231 238 248 245 242 235 240 242 245 245 239 233 241 247 237 229 240 250 276 279 271 258 277 282 283 293 295 303 310 322
256 257 259 254 256 271 280 279 273 246 242 247 243 237 238 243 253 253 236 239 253 259 262 259 256 260 267 269 261 245 246 265 285 278 250 252 279 295 289 285 302 317 323
253 256 260 253 251 261 275 276 270 239 238 246 248 246 250 251 254 253 227 221 243 257 261 281 284 280 270 262 264 237 223 243 273 275 248 255 283 315 304 283 287 308 314